EHI
0 0 0 0 0 0 0 0 0 0 0 0 0 0 0 0 0 0 0 0 0 0 1 3 3 1 0 1 2 3 1 1 2 2 1 0 0 0 0 0 0 0 0 0
0 0 0 0 0 0 0 0 0 0 0 0 0 0 0 0 0 0 0 0 0 1 2 3 3 2 1 2 3 3 2 1 1 1 1 0 0 0 0 0 0 0 0 0
0 0 0 0 0 0 0 0 0 0 0 0 0 0 0 0 0 0 0 0 0 1 2 2 2 2 3 4 3 3 2 1 0 0 0 0 0 0 0 0 0 0 0 0
0 0 0 0 0 0 0 0 0 0 0 0 0 0 0 0 0 0 0 0 0 0 1 1 1 2 3 4 4 4 2 1 0 1 2 2 1 0 0 0 1 0 0 0
0 0 0 0 0 0 0 0 0 0 0 0 0 0 0 0 0 0 0 0 0 0 0 0 0 1 1 2 3 4 3 1 1 2 4 3 1 0 0 0 0 0 0 0
0 0 0 0 0 0 0 0 0 0 0 0 0 0 0 0 0 0 0 0 0 0 0 0 0 0 0 1 2 3 3 2 2 3 4 4 2 0 0 0 0 1 1 1
0 0 0 0 0 0 0 0 0 0 0 0 0 0 0 0 0 0 0 0 0 0 0 0 0 0 0 0 2 3 2 2 3 3 3 3 2 1 0 0 0 1 2 1
0 0 0 0 0 0 0 0 0 0 0 0 0 0 0 0 0 0 0 0 0 0 0 0 0 0 0 1 2 3 2 2 3 3 3 3 3 2 1 1 1 1 1 0
0 0 0 0 0 0 0 0 0 0 0 0 0 0 0 0 0 0 0 0 0 0 0 0 0 0 0 1 2 4 4 3 3 2 3 3 3 3 3 2 1 1 0 0
0 0 0 0 0 0 0 0 0 0 0 0 0 0 0 0 0 0 0 0 0 0 0 0 0 0 0 1 3 4 5 4 3 3 4 3 3 3 3 3 2 1 0 0
0 0 0 0 0 0 0 0 0 0 0 0 0 0 0 0 0 0 0 0 0 0 0 0 0 0 0 1 3 5 6 4 4 6 5 4 3 3 3 3 3 2 0 0
0 0 0 0 0 0 0 0 0 0 0 0 0 0 0 0 0 0 0 0 0 0 0 0 0 0 1 2 3 4 5 5 6 7 6 4 3 3 3 3 3 1 0 0
0 0 0 0 0 0 0 0 0 0 0 0 0 0 0 0 0 0 0 0 0 0 0 0 0 0 1 2 2 2 2 4 6 7 6 4 3 3 3 3 2 1 0 0
0 0 0 0 0 0 0 0 0 0 0 0 0 0 0 0 0 0 0 0 0 0 0 0 0 0 0 1 1 0 1 2 4 5 5 4 3 3 3 3 3 1 1 1
0 0 0 0 0 0 0 0 0 0 0 0 0 0 0 0 0 0 0 0 0 0 0 0 0 0 0 0 0 0 0 1 3 3 3 3 2 2 3 3 3 3 2 2
0 0 0 0 0 0 0 0 0 0 0 0 0 0 0 0 0 0 0 0 0 0 0 0 0 0 0 0 0 0 0 1 2 3 2 1 1 2 3 3 3 3 3 3
0 0 0 0 0 0 0 0 0 0 0 0 0 0 0 0 0 0 0 0 0 0 0 0 0 0 1 1 1 1 1 1 3 3 2 1 1 3 3 2 3 3 3 3
0 0 0 0 0 0 0 0 0 0 0 0 0 0 0 0 0 0 0 0 0 0 0 0 0 0 1 2 2 2 2 3 3 3 3 2 3 3 3 3 3 3 3 3
0 0 0 0 0 0 0 0 0 0 0 0 0 0 0 0 0 0 0 0 0 0 0 0 0 0 0 1 2 3 3 3 3 3 3 3 3 3 3 4 4 4 4 4
0 0 0 0 0 0 0 0 0 0 0 0 0 0 0 0 0 0 0 0 0 0 0 0 0 0 0 0 1 2 2 2 3 3 3 3 3 3 3 3 4 5 5 5
0 0 0 0 0 0 0 0 0 0 0 0 0 0 0 0 0 0 0 0 0 0 0 0 0 0 0 0 0 1 1 1 1 2 2 2 2 2 3 3 3 4 5 5
0 0 0 0 0 0 0 0 0 0 0 0 0 0 0 0 0 0 0 0 0 0 0 0 0 0 0 0 0 0 0 0 0 1 1 1 1 1 1 2 2 3 3 3
0 0 0 0 0 0 0 0 0 0 0 0 0 0 0 0 0 0 0 0 0 0 0 0 0 0 0 0 0 0 0 0 0 0 0 0 0 0 0 1 1 1 1 1
0 0 0 0 0 0 0 0 0 0 0 0 0 0 0 0 0 0 0 0 0 0 0 0 0 0 0 0 0 0 0 0 0 0 0 0 0 0 0 0 0 0 0 0
0 0 0 0 0 0 0 0 0 0 0 0 0 0 0 0 0 0 0 0 0 0 0 0 0 0 0 0 0 0 0 0 0 0 0 0 0 0 0 0 0 0 0 0
0 0 0 0 0 0 0 0 0 0 0 0 0 0 0 0 0 0 0 0 0 0 0 0 0 0 0 0 0 0 0 0 0 0 0 0 0 0 0 0 0 0 0 0
Wind_Speed
3 5 4 3 4 3 3 3 3 1 0 2 3 3 2 2 3 4 5 5 5 5 4 4 5 5 5 5 5 4 4 4 3 2 2 2 2 1 1 1 0 0 1 1
6 4 2 2 4 5 6 5 3 1 1 2 2 3 3 1 2 3 3 4 4 3 3 4 5 6 6 6 6 5 5 4 4 2 2 2 1 1 1 0 1 1 1 1
4 2 4 5 6 6 6 5 3 2 1 4 3 3 3 2 2 1 2 2 2 3 4 5 5 5 6 7 6 5 5 5 4 4 2 2 2 1 1 1 1 1 1 2
3 3 5 5 5 5 4 2 3 4 5 2 4 3 2 2 2 1 1 1 2 2 3 4 5 5 6 6 6 6 6 6 5 4 4 4 3 2 2 1 1 1 1 2
3 3 4 5 3 5 1 2 3 4 5 4 4 5 2 3 2 1 0 0 1 1 2 3 4 4 5 5 5 6 6 6 6 5 5 5 4 3 2 2 2 2 1 2
2 2 2 2 2 3 4 5 5 5 5 5 3 5 1 1 1 1 1 1 0 0 1 2 2 2 2 3 4 5 5 6 6 6 6 6 5 4 3 3 3 2 2 2
4 4 3 3 5 6 5 6 4 5 5 2 1 4 0 3 3 3 2 1 1 1 1 1 1 1 2 3 4 5 6 6 6 7 7 6 6 6 5 4 4 3 2 2
4 4 4 3 4 4 5 6 5 3 3 1 3 4 3 4 3 3 2 2 1 1 1 0 1 1 2 2 3 5 5 6 6 6 6 6 5 4 4 4 3 3 3 3
3 2 3 2 2 4 5 4 4 5 4 4 4 3 3 3 3 3 3 3 3 3 2 1 1 1 2 2 3 4 5 5 5 5 6 5 5 4 5 4 4 3 3 3
4 3 3 3 5 2 2 2 4 5 4 5 4 5 2 2 2 2 3 3 3 3 3 2 0 1 2 1 2 3 4 4 4 4 4 3 4 5 5 4 4 4 4 3
5 5 4 5 4 4 5 5 4 4 5 5 4 1 3 1 1 2 2 3 3 3 3 2 1 0 1 1 1 2 3 3 4 4 3 4 3 4 4 4 4 4 4 4
3 5 5 4 2 1 4 4 5 6 5 5 5 1 4 1 1 1 2 2 3 3 3 3 2 1 1 1 1 1 1 2 2 3 3 3 3 4 4 4 4 4 5 4
3 5 5 6 6 6 4 4 5 6 5 6 7 2 4 2 1 2 2 2 2 3 3 3 2 2 1 1 1 0 0 1 1 1 2 2 3 3 3 3 3 3 4 5
4 6 6 6 3 3 5 5 6 8 7 7 8 6 2 2 2 3 2 2 3 3 3 3 3 2 2 2 1 1 0 0 0 0 1 1 2 3 3 3 3 3 3 4
4 5 6 7 5 4 6 7 8 10 10 9 8 7 5 4 3 3 2 2 3 3 4 4 3 3 2 2 1 1 1 1 0 0 1 1 2 2 3 3 3 3 3 4
3 5 5 6 4 5 7 7 8 10 9 9 8 7 4 3 2 2 1 1 2 3 4 4 4 3 3 2 2 1 1 1 1 0 1 1 2 2 2 3 3 3 3 4
4 5 5 6 3 6 8 7 8 7 6 7 7 4 1 2 2 2 1 1 2 3 3 4 4 3 3 3 2 2 1 0 1 1 1 1 2 2 2 2 3 3 3 4
6 5 4 5 5 8 0 2 3 5 4 4 4 2 2 2 2 1 1 0 1 2 3 3 4 4 3 3 3 2 1 1 1 1 1 2 2 2 3 3 3 3 3 4
6 5 4 5 6 7 2 2 2 5 4 3 3 2 1 1 1 2 0 1 2 2 3 3 4 4 4 3 3 3 2 2 2 2 2 3 3 3 3 4 4 4 4 4
4 5 6 6 6 6 1 2 2 5 5 1 2 2 1 2 4 1 1 2 2 2 2 3 3 4 4 4 3 3 3 3 3 3 4 3 3 4 4 4 4 4 4 4
5 5 7 8 8 4 3 2 2 5 2 2 1 1 3 4 3 2 0 1 1 2 2 3 3 3 3 4 3 3 3 4 4 4 4 4 4 4 4 4 4 4 4 4
5 5 6 6 7 3 4 3 3 3 3 0 1 1 2 2 2 1 1 1 2 2 2 2 2 3 3 3 4 4 4 4 4 4 4 4 4 4 3 3 3 4 4 4
4 3 3 4 2 3 2 1 2 3 2 2 2 2 2 2 2 2 2 2 2 3 3 3 3 3 3 3 4 5 4 4 4 4 4 4 4 4 3 3 3 3 3 3
2 2 4 5 3 2 1 1 2 3 3 3 2 2 2 3 3 3 3 2 2 3 3 3 3 4 4 4 4 4 4 4 4 4 4 4 4 3 3 3 3 3 3 3
3 3 5 6 4 3 3 3 3 3 3 2 2 2 3 3 3 3 3 3 3 3 3 3 4 4 5 5 5 5 4 4 4 4 4 4 3 3 3 3 3 4 3 4
5 6 6 5 4 5 5 3 3 3 3 2 3 3 3 3 3 3 3 3 3 3 3 4 4 5 5 5 5 4 4 4 4 4 4 3 3 3 3 3 3 2 3 4
Wind_Direction
181 202 200 201 219 234 218 216 224 230 172 241 244 258 265 208 212 227 212 209 212 217 207 190 186 189 189 189 195 188 183 178 173 177 193 191 187 186 181 189 193 213 213 168
190 197 192 174 184 205 217 218 219 185 143 247 247 261 266 229 220 230 226 216 212 212 194 189 195 195 196 195 203 200 195 186 183 190 201 200 190 207 183 198 196 227 234 213
210 136 161 184 188 203 220 228 235 246 206 210 238 235 206 166 168 204 246 241 229 224 209 195 200 199 202 201 205 207 201 194 192 191 193 177 167 184 188 206 206 228 247 236
214 191 194 206 204 224 220 220 233 228 237 212 240 259 191 166 152 159 225 237 243 229 221 205 207 203 210 210 207 208 202 200 194 192 199 198 205 213 224 228 215 207 219 236
184 193 206 217 216 229 211 163 210 228 242 241 222 250 179 149 194 175 123 34 250 238 224 214 215 213 215 210 207 208 201 202 198 200 202 216 222 228 224 224 220 224 215 228
207 194 238 237 186 186 163 186 192 212 234 238 234 247 211 115 346 34 51 47 55 35 212 226 219 210 200 201 203 205 201 202 203 207 211 219 222 225 220 223 225 224 211 214
197 182 185 205 190 168 205 226 221 211 213 226 153 242 181 56 33 6 356 356 37 79 177 210 209 201 192 191 200 201 201 204 205 212 218 222 229 236 235 233 231 234 228 221
220 189 173 203 229 215 213 241 259 267 255 222 194 232 104 77 51 41 34 15 32 51 49 250 228 211 211 200 206 205 204 208 207 214 222 225 226 233 240 238 236 236 243 242
242 192 146 189 225 231 204 221 284 279 267 259 217 192 147 106 64 47 42 36 28 24 16 330 272 245 232 217 214 214 211 213 213 218 221 223 228 236 241 239 237 238 242 243
269 239 177 177 187 155 271 204 219 239 252 252 230 225 203 130 48 43 31 21 16 13 11 0 299 252 241 230 226 214 219 223 220 217 217 222 229 236 243 244 241 244 246 242
255 242 190 182 210 211 176 192 232 245 264 271 262 184 64 81 50 40 27 14 8 10 8 12 11 249 205 192 191 212 213 226 228 226 221 216 219 233 242 246 245 246 248 245
242 252 231 204 157 261 226 222 233 250 240 252 271 258 83 80 48 16 7 6 4 11 16 17 16 34 121 159 168 205 222 229 233 230 226 225 218 221 230 240 246 249 249 244
211 234 230 192 178 180 202 215 239 260 261 247 251 229 100 92 25 4 358 1 4 14 18 23 25 36 46 74 113 116 284 281 253 228 230 234 237 235 237 238 242 248 250 249
251 238 246 257 269 213 216 215 224 240 249 254 253 264 249 293 323 327 333 344 354 11 15 17 21 28 36 45 35 60 55 8 338 250 241 255 258 256 255 250 245 246 252 255
250 247 245 260 257 247 250 243 226 239 254 266 275 273 284 301 308 307 321 1 4 6 6 4 5 14 20 25 13 25 34 22 12 265 295 284 278 272 267 258 256 256 254 259
258 255 246 241 230 246 253 253 245 247 255 257 266 274 303 305 305 311 323 5 360 2 358 355 354 359 1 3 358 7 29 17 354 342 325 318 304 291 279 273 269 266 264 262
240 244 246 251 239 254 244 241 242 242 248 247 255 274 296 295 303 302 311 1 1 357 350 346 347 347 350 342 330 328 355 3 336 317 323 322 300 296 292 283 276 272 268 266
241 237 249 257 245 246 139 87 246 241 246 241 260 282 266 289 291 267 205 335 343 350 343 340 338 340 344 338 325 317 308 304 307 313 325 325 310 302 297 286 278 274 269 265
233 233 235 239 250 262 205 175 230 240 242 218 252 264 276 358 227 187 104 323 324 330 332 333 329 329 331 332 320 305 297 292 298 311 315 313 306 298 293 287 284 282 278 273
197 229 236 233 249 256 102 88 286 251 233 154 261 242 209 227 256 242 25 303 304 318 331 335 325 324 329 329 313 298 301 301 302 303 302 303 300 294 291 293 293 290 279 272
188 205 225 237 247 260 63 86 206 233 341 72 231 216 210 242 309 6 217 276 295 301 312 320 318 320 322 317 302 288 296 306 312 308 301 298 294 293 291 293 294 291 285 281
223 218 220 229 239 239 95 148 218 331 22 342 244 238 247 292 338 4 221 255 278 287 287 296 305 315 316 311 297 290 298 311 310 303 300 300 296 296 291 289 289 288 286 279
235 259 270 246 273 32 126 222 321 346 314 302 259 253 256 267 284 279 265 266 277 281 284 286 292 300 299 297 294 292 301 308 308 304 297 294 294 293 288 285 285 286 286 285
221 261 247 247 248 277 274 287 309 313 309 306 278 261 254 264 271 269 264 263 276 284 284 281 282 288 294 297 293 292 294 295 294 295 293 289 288 291 292 289 284 284 286 288
248 214 238 249 261 274 257 276 296 309 315 311 291 277 269 264 264 266 264 263 273 280 279 277 279 286 294 300 298 299 296 294 292 294 296 295 292 288 285 285 291 285 286 300
220 226 236 255 255 254 265 275 277 279 283 282 289 286 278 265 258 259 268 274 276 281 286 286 288 292 296 296 294 298 297 293 289 289 293 299 296 290 285 283 289 313 286 303